THOR ABLESTAR DEB, 3592

Orbit data source: Space-Track

THOR ABLESTAR DEB, 3592 is space debris in LEO originally from a launch on Thu, 24 Jun 1965 UTC launched from the Air Force Western Test Range (AFWTR). Debris objects in space refer to the collection of defunct objects orbiting the Earth. Examples of debris include non-operational satellites, rocket bodies, and fragments generated from explosions, collisions, or faulty payload assembly.

Loading next visibility...
Identifier
3592, 1965-048F
Orbit
LEO
Country
Flag of USUS
Related business
Manufacturer
Unknown
Mission
Spacecraft
Bus & Motor
Unknown
Mass
Unknown
Launch date (UTC)
1965-06-24 (61 years ago)
Launch vehicle
Unknown
Launch site
Air Force Western Test Range (AFWTR)
Object type
Payload
Rocket body
Debris
Shape & HBR
Unknown shape, 0.1 m
Radar Cross Section
Small (<0.1 m²)

Expand to show TLE details & history
Last TLE update: 11 hours ago

TLE from 11 hours ago
0 THOR ABLESTAR DEB
1 03592U 65048F   26073.86509493  .00000300  00000-0  36844-3 0  9995
2 03592  89.8738 288.9596 0059024 239.2644 141.0260 13.62668183  7118
Epoch: 2026-03-14T20:45Z
TLE epoch observation values (Epoch: 2026-03-14T20:45:44.201Z)
Latitude
20.71783°
Longitude
165.09277°
Altitude
1,062.725 km
Speed
7.305 km/s
True Right ascension
19h 16m 01s
True Declination
20° 36' 32"
Sunlit
Object was in daylight at epoch
Visualization orbit readout
Latitude
Unknown
Longitude
Unknown
Altitude
Unknown
Speed
Unknown
Apparent Right ascension
Unknown
Apparent Declination
Unknown
Sunlit
N/A
Visualization observer readout
Local Sidereal Time
12:14:01
Azimuth
Unknown
Elevation
Unknown
Doppler factor
Unknown
Orbital elements
Apogee altitude
1,066.727 km
Perigee altitude
979.358 km
Semi-major axis
7,401.179 km
Eccentricity
0.0059
Inclination
89.8738°
RAAN
288.9596°
Arg. of periapsis
239.2644°
True anomaly
141.44898°
Mean anomaly
141.026°
Eccentric anomaly
141.23773°
Mean motion
3.40872 °/min
Orbital period
105.61 mins
BSTAR
0.00036844
Loading maneuver chart data...
Computing Atmospheric mass density...

Documentation

Showing up to 5 results
|